This is the latest recevied weather packets stored in our database for station/object N4CRH-13. If no packets are shown the sender has not sent any weather packets the latest 10 day(s).
| Time | Temp. | Humidity | Pressure | Rain* | Wind** | Luminosity | Snow |
|---|---|---|---|---|---|---|---|
| 1777825134 | 14.44° C | 27% | 1297.1 hPa | 0 mm | - | 211 W/m² | - |
| 1777824831 | 14.44° C | 32% | 1297 hPa | 0 mm | - | 210 W/m² | - |
| 1777824528 | 14.44° C | 29% | 1297.1 hPa | 0 mm | - | 214 W/m² | - |
| 1777824224 | 13.89° C | 29% | 1297.1 hPa | 0 mm | - | 221 W/m² | - |
| 1777823919 | 13.89° C | 27% | 1297.1 hPa | 0 mm | - | 225 W/m² | - |
| 1777823617 | 13.89° C | 30% | 1297.3 hPa | 0 mm | - | 216 W/m² | - |
| 1777823314 | 13.89° C | 28% | 1297.1 hPa | 0 mm | - | 207 W/m² | - |
| 1777823011 | 13.89° C | 29% | 1297.1 hPa | 0 mm | - | 199 W/m² | - |
| 1777822709 | 13.89° C | 28% | 1297 hPa | 0 mm | - | 192 W/m² | - |
| 1777822407 | 13.89° C | 27% | 1297.1 hPa | 0 mm | - | 189 W/m² | - |
| 1777822104 | 13.89° C | 27% | 1297 hPa | 0 mm | - | 191 W/m² | - |
| 1777821802 | 13.89° C | 28% | 1297.1 hPa | 0 mm | - | 194 W/m² | - |
| 1777821499 | 13.89° C | 28% | 1297.1 hPa | 0 mm | - | 195 W/m² | - |
| 1777821196 | 13.89° C | 27% | 1297.1 hPa | 0 mm | - | 194 W/m² | - |
| 1777820893 | 13.89° C | 28% | 1297 hPa | 0 mm | - | 193 W/m² | - |
| 1777820589 | 13.33° C | 27% | 1297.3 hPa | 0 mm | - | 180 W/m² | - |
| 1777820286 | 13.33° C | 28% | 1297.4 hPa | 0 mm | - | 170 W/m² | - |
| 1777819984 | 13.33° C | 29% | 1297.3 hPa | 0 mm | - | 160 W/m² | - |
| 1777819680 | 13.33° C | 30% | 1297.5 hPa | 0 mm | - | 151 W/m² | - |
| 1777819379 | 13.33° C | 32% | 1297.5 hPa | 0 mm | - | 149 W/m² | - |
| 1777819075 | 12.78° C | 33% | 1297.3 hPa | 0 mm | - | 150 W/m² | - |
| 1777818772 | 12.78° C | 34% | 1297.3 hPa | 0 mm | - | 148 W/m² | - |
| 1777818468 | 12.22° C | 38% | 1297.5 hPa | 0 mm | - | 142 W/m² | - |
| 1777818166 | 12.22° C | 38% | 1297.4 hPa | 0 mm | - | 138 W/m² | - |
| 1777817862 | 11.67° C | 37% | 1297.6 hPa | 0 mm | - | 131 W/m² | - |
* Rain latest hour (hover to see other rain measurements)
** Current wind speed in m/s (hover to see current wind gust speed)